| time (UTC) | temp F | wind direction | speed MPH | gust MPH | rain 1hr in | rain 24hr in | rain mn in | humidity % | barometer mb |
| 20260506024014 | 62 | 76 | 0.0 | 0.0 | 0.00 | 0.00 | 0.00 | 77 | 1008.2 |
| 20260506023510 | 63 | 76 | 0.0 | 0.0 | 0.00 | 0.00 | 0.00 | 76 | 1008.3 |
| 20260506023008 | 64 | 77 | 0.0 | 1.0 | 0.00 | 0.00 | 0.00 | 74 | 1007.9 |
| 20260506022505 | 65 | 77 | 0.0 | 1.0 | 0.00 | 0.00 | 0.00 | 71 | 1007.8 |
| 20260506022002 | 65 | 76 | 1.0 | 2.0 | 0.00 | 0.00 | 0.00 | 64 | 1007.8 |
| 20260506021500 | 65 | 86 | 1.0 | 2.0 | 0.00 | 0.00 | 0.00 | 64 | 1007.9 |
| 20260506020957 | 65 | 20 | 1.0 | 2.0 | 0.00 | 0.00 | 0.00 | 62 | 1008.2 |
| 20260506020454 | 66 | 2 | 1.0 | 1.0 | 0.00 | 0.00 | 0.00 | 67 | 1008.3 |
| 20260506015951 | 67 | 96 | 0.0 | 0.0 | 0.00 | 0.00 | 0.00 | 63 | 1007.8 |
| 20260506015449 | 68 | 96 | 0.0 | 0.0 | 0.00 | 0.00 | 0.00 | 54 | 1007.9 |
| 20260506014945 | 68 | 96 | 1.0 | 2.0 | 0.00 | 0.00 | 0.00 | 54 | 1007.7 |
| 20260506014442 | 68 | 93 | 1.0 | 2.0 | 0.00 | 0.00 | 0.00 | 54 | 1007.7 |
| 20260506013939 | 68 | 85 | 2.0 | 2.0 | 0.00 | 0.00 | 0.00 | 53 | 1007.6 |
| 20260506013437 | 68 | 90 | 2.0 | 2.0 | 0.00 | 0.00 | 0.00 | 54 | 1007.5 |
| 20260506012933 | 68 | 95 | 1.0 | 2.0 | 0.00 | 0.00 | 0.00 | 54 | 1007.6 |
| 20260506012430 | 69 | 75 | 3.0 | 3.0 | 0.00 | 0.00 | 0.00 | 54 | 1007.6 |
| 20260506011926 | 69 | 135 | 1.0 | 1.0 | 0.00 | 0.00 | 0.00 | 52 | 1007.9 |
| 20260506011424 | 69 | 94 | 2.0 | 2.0 | 0.00 | 0.00 | 0.00 | 52 | 1007.5 |
| 20260506010920 | 69 | 91 | 2.0 | 3.0 | 0.00 | 0.00 | 0.00 | 52 | 1007.6 |
| 20260506010420 | 69 | 106 | 3.0 | 3.0 | 0.00 | 0.00 | 0.00 | 51 | 1007.9 |
| 20260506005915 | 69 | 102 | 2.0 | 3.0 | 0.00 | 0.00 | 0.00 | 51 | 1007.9 |
| 20260506005414 | 69 | 96 | 2.0 | 2.0 | 0.00 | 0.00 | 0.00 | 51 | 1008.0 |
| 20260506004908 | 70 | 101 | 1.0 | 3.0 | 0.00 | 0.00 | 0.00 | 51 | 1007.8 |
| 20260506004407 | 70 | 89 | 1.0 | 3.0 | 0.00 | 0.00 | 0.00 | 50 | 1007.9 |
| 20260506003902 | 70 | 106 | 2.0 | 3.0 | 0.00 | 0.00 | 0.00 | 50 | 1007.7 |
| 20260506003358 | 70 | 106 | 2.0 | 4.0 | 0.00 | 0.00 | 0.00 | 52 | 1007.9 |
| 20260506002855 | 70 | 103 | 1.0 | 1.0 | 0.00 | 0.00 | 0.00 | 52 | 1008.1 |
| 20260506002351 | 71 | 83 | 2.0 | 2.0 | 0.00 | 0.00 | 0.00 | 49 | 1008.0 |
| 20260506001847 | 71 | 201 | 2.0 | 6.0 | 0.00 | 0.00 | 0.00 | 48 | 1008.0 |
| 20260506001344 | 71 | 208 | 2.0 | 3.0 | 0.00 | 0.00 | 0.00 | 49 | 1008.1 |
| 20260506000841 | 71 | 194 | 3.0 | 11.0 | 0.00 | 0.00 | 0.00 | 48 | 1008.3 |
| 20260506000340 | 71 | 146 | 2.0 | 7.0 | 0.00 | 0.00 | 0.00 | 50 | 1008.6 |
| 20260505235835 | 71 | 233 | 4.0 | 7.0 | 0.00 | 0.00 | 0.00 | 51 | 1008.5 |
| 20260505235333 | 71 | 243 | 2.0 | 4.0 | 0.00 | 0.00 | 0.00 | 52 | 1008.4 |
| 20260505234830 | 71 | 199 | 7.0 | 14.0 | 0.00 | 0.00 | 0.00 | 51 | 1008.5 |
| 20260505234328 | 71 | 92 | 3.0 | 4.0 | 0.00 | 0.00 | 0.00 | 55 | 1008.4 |
| 20260505233824 | 71 | 223 | 1.0 | 3.0 | 0.00 | 0.00 | 0.00 | 54 | 1008.3 |
| 20260505233322 | 71 | 82 | 2.0 | 4.0 | 0.00 | 0.00 | 0.00 | 53 | 1008.2 |
| 20260505232819 | 72 | 190 | 1.0 | 2.0 | 0.00 | 0.00 | 0.00 | 53 | 1008.0 |
| 20260505232317 | 72 | 118 | 2.0 | 3.0 | 0.00 | 0.00 | 0.00 | 52 | 1008.3 |
| 20260505231813 | 72 | 189 | 2.0 | 3.0 | 0.00 | 0.00 | 0.00 | 52 | 1008.1 |
| 20260505231312 | 72 | 56 | 1.0 | 2.0 | 0.00 | 0.00 | 0.00 | 52 | 1008.2 |
| 20260505230810 | 72 | 137 | 0.0 | 3.0 | 0.00 | 0.00 | 0.00 | 52 | 1008.3 |
| 20260505230306 | 72 | 226 | 1.0 | 4.0 | 0.00 | 0.00 | 0.00 | 51 | 1008.3 |
| 20260505225803 | 73 | 122 | 2.0 | 3.0 | 0.00 | 0.00 | 0.00 | 52 | 1008.3 |
| 20260505225300 | 73 | 258 | 1.0 | 4.0 | 0.00 | 0.00 | 0.00 | 50 | 1008.3 |
| 20260505224755 | 73 | 323 | 2.0 | 3.0 | 0.00 | 0.00 | 0.00 | 50 | 1008.2 |
| 20260505224253 | 73 | 269 | 4.0 | 6.0 | 0.00 | 0.00 | 0.00 | 49 | 1008.3 |
| 20260505223750 | 73 | 230 | 0.0 | 3.0 | 0.00 | 0.00 | 0.00 | 51 | 1008.3 |
| 20260505223247 | 73 | 193 | 3.0 | 6.0 | 0.00 | 0.00 | 0.00 | 49 | 1008.4 |
| 20260505222743 | 73 | 238 | 3.0 | 3.0 | 0.00 | 0.00 | 0.00 | 49 | 1008.4 |
| 20260505222239 | 73 | 207 | 1.0 | 3.0 | 0.00 | 0.00 | 0.00 | 50 | 1008.4 |
| 20260505221736 | 74 | 223 | 1.0 | 4.0 | 0.00 | 0.00 | 0.00 | 49 | 1008.5 |
| 20260505221233 | 74 | 222 | 4.0 | 6.0 | 0.00 | 0.00 | 0.00 | 50 | 1008.5 |
| 20260505220729 | 74 | 174 | 1.0 | 4.0 | 0.00 | 0.00 | 0.00 | 49 | 1008.5 |
| 20260505220227 | 74 | 227 | 3.0 | 8.0 | 0.00 | 0.00 | 0.00 | 48 | 1008.5 |
| 20260505215725 | 74 | 208 | 2.0 | 7.0 | 0.00 | 0.00 | 0.00 | 49 | 1008.5 |
| 20260505215223 | 74 | 218 | 3.0 | 6.0 | 0.00 | 0.00 | 0.00 | 47 | 1008.6 |
| 20260505214720 | 74 | 108 | 6.0 | 10.0 | 0.00 | 0.00 | 0.00 | 47 | 1008.7 |
| 20260505214218 | 74 | 187 | 3.0 | 7.0 | 0.00 | 0.00 | 0.00 | 47 | 1008.6 |
| 20260505213715 | 74 | 204 | 4.0 | 11.0 | 0.00 | 0.00 | 0.00 | 47 | 1008.5 |
| 20260505213212 | 74 | 187 | 9.0 | 11.0 | 0.00 | 0.00 | 0.00 | 46 | 1008.7 |
| 20260505212708 | 74 | 149 | 1.0 | 3.0 | 0.00 | 0.00 | 0.00 | 47 | 1008.5 |
| 20260505212205 | 75 | 211 | 5.0 | 8.0 | 0.00 | 0.00 | 0.00 | 47 | 1008.6 |
| 20260505211702 | 75 | 121 | 2.0 | 6.0 | 0.00 | 0.00 | 0.00 | 47 | 1008.7 |
| 20260505211159 | 76 | 157 | 7.0 | 9.0 | 0.00 | 0.00 | 0.00 | 46 | 1008.8 |
| 20260505210656 | 77 | 208 | 3.0 | 4.0 | 0.00 | 0.00 | 0.00 | 46 | 1008.9 |
| 20260505210153 | 77 | 283 | 4.0 | 8.0 | 0.00 | 0.00 | 0.00 | 45 | 1009.0 |
| 20260505205650 | 75 | 190 | 4.0 | 6.0 | 0.00 | 0.00 | 0.00 | 47 | 1009.1 |
| 20260505205148 | 74 | 152 | 3.0 | 4.0 | 0.00 | 0.00 | 0.00 | 48 | 1009.0 |
| 20260505204645 | 74 | 182 | 4.0 | 7.0 | 0.00 | 0.00 | 0.00 | 47 | 1009.1 |
| 20260505204143 | 74 | 266 | 1.0 | 7.0 | 0.00 | 0.00 | 0.00 | 48 | 1009.2 |
| 20260505203639 | 74 | 236 | 2.0 | 8.0 | 0.00 | 0.00 | 0.00 | 47 | 1009.5 |
| 20260505203136 | 74 | 268 | 3.0 | 10.0 | 0.00 | 0.00 | 0.00 | 47 | 1009.3 |
| 20260505202631 | 74 | 135 | 5.0 | 9.0 | 0.00 | 0.00 | 0.00 | 46 | 1009.5 |
| 20260505202128 | 74 | 123 | 3.0 | 6.0 | 0.00 | 0.00 | 0.00 | 49 | 1009.6 |
| 20260505201619 | 75 | 268 | 2.0 | 10.0 | 0.00 | 0.00 | 0.00 | 47 | 1009.4 |
| 20260505201116 | 75 | 195 | 9.0 | 11.0 | 0.00 | 0.00 | 0.00 | 45 | 1009.8 |
| 20260505200615 | 75 | 214 | 12.0 | 15.0 | 0.00 | 0.00 | 0.00 | 45 | 1009.6 |
| 20260505200111 | 75 | 220 | 4.0 | 8.0 | 0.00 | 0.00 | 0.00 | 48 | 1009.8 |
| 20260505195602 | 75 | 230 | 5.0 | 9.0 | 0.00 | 0.00 | 0.00 | 47 | 1009.6 |
| 20260505195059 | 74 | 87 | 7.0 | 13.0 | 0.00 | 0.00 | 0.00 | 47 | 1009.8 |
| 20260505194556 | 75 | 151 | 6.0 | 11.0 | 0.00 | 0.00 | 0.00 | 45 | 1009.8 |
| 20260505194052 | 75 | 240 | 5.0 | 8.0 | 0.00 | 0.00 | 0.00 | 47 | 1009.8 |
| 20260505193549 | 75 | 196 | 5.0 | 10.0 | 0.00 | 0.00 | 0.00 | 47 | 1010.1 |
| 20260505193046 | 75 | 295 | 3.0 | 6.0 | 0.00 | 0.00 | 0.00 | 46 | 1010.1 |
| 20260505192545 | 74 | 193 | 6.0 | 16.0 | 0.00 | 0.00 | 0.00 | 46 | 1010.2 |
| 20260505192042 | 75 | 172 | 11.0 | 15.0 | 0.00 | 0.00 | 0.00 | 47 | 1010.3 |
| 20260505191540 | 75 | 125 | 4.0 | 6.0 | 0.00 | 0.00 | 0.00 | 48 | 1010.3 |
| 20260505191038 | 76 | 200 | 1.0 | 15.0 | 0.00 | 0.00 | 0.00 | 47 | 1010.3 |
| 20260505190537 | 75 | 347 | 4.0 | 8.0 | 0.00 | 0.00 | 0.00 | 48 | 1010.5 |
| 20260505190034 | 75 | 16 | 2.0 | 10.0 | 0.00 | 0.00 | 0.00 | 48 | 1010.5 |
| 20260505185531 | 75 | 237 | 4.0 | 15.0 | 0.00 | 0.00 | 0.00 | 49 | 1010.6 |
| 20260505185028 | 75 | 203 | 5.0 | 11.0 | 0.00 | 0.00 | 0.00 | 48 | 1010.8 |
| 20260505184525 | 75 | 170 | 2.0 | 17.0 | 0.00 | 0.00 | 0.00 | 46 | 1010.3 |
| 20260505184022 | 75 | 201 | 9.0 | 17.0 | 0.00 | 0.00 | 0.00 | 47 | 1010.5 |
| 20260505183518 | 75 | 293 | 9.0 | 14.0 | 0.00 | 0.00 | 0.00 | 48 | 1010.5 |
| 20260505183015 | 75 | 147 | 3.0 | 17.0 | 0.00 | 0.00 | 0.00 | 46 | 1010.5 |
| 20260505182506 | 75 | 302 | 3.0 | 9.0 | 0.00 | 0.00 | 0.00 | 48 | 1010.7 |
| 20260505182003 | 75 | 167 | 9.0 | 13.0 | 0.00 | 0.00 | 0.00 | 47 | 1010.2 |
| 20260505181459 | 75 | 257 | 3.0 | 14.0 | 0.00 | 0.00 | 0.00 | 47 | 1010.5 |
| 20260505180956 | 75 | 127 | 3.0 | 11.0 | 0.00 | 0.00 | 0.00 | 50 | 1010.5 |
| 20260505180452 | 75 | 181 | 6.0 | 18.0 | 0.00 | 0.00 | 0.00 | 47 | 1010.5 |
| 20260505175950 | 75 | 207 | 8.0 | 15.0 | 0.00 | 0.00 | 0.00 | 47 | 1010.6 |
| 20260505175445 | 75 | 251 | 8.0 | 15.0 | 0.00 | 0.00 | 0.00 | 46 | 1010.5 |
| 20260505174942 | 75 | 144 | 4.0 | 6.0 | 0.00 | 0.00 | 0.00 | 49 | 1010.5 |
| 20260505174439 | 75 | 203 | 7.0 | 17.0 | 0.00 | 0.00 | 0.00 | 48 | 1010.6 |
| 20260505173935 | 76 | 142 | 6.0 | 9.0 | 0.00 | 0.00 | 0.00 | 49 | 1010.4 |
| 20260505173432 | 75 | 124 | 3.0 | 14.0 | 0.00 | 0.00 | 0.00 | 51 | 1010.5 |
| 20260505172929 | 76 | 234 | 7.0 | 10.0 | 0.00 | 0.00 | 0.00 | 47 | 1010.4 |
| 20260505172428 | 76 | 232 | 10.0 | 16.0 | 0.00 | 0.00 | 0.00 | 48 | 1010.6 |
| 20260505171926 | 76 | 212 | 9.0 | 17.0 | 0.00 | 0.00 | 0.00 | 49 | 1010.4 |
| 20260505171424 | 76 | 202 | 3.0 | 6.0 | 0.00 | 0.00 | 0.00 | 49 | 1010.3 |
| 20260505170920 | 76 | 311 | 2.0 | 8.0 | 0.00 | 0.00 | 0.00 | 49 | 1010.5 |
| 20260505170417 | 75 | 224 | 9.0 | 16.0 | 0.00 | 0.00 | 0.00 | 51 | 1010.4 |
| 20260505165912 | 74 | 172 | 5.0 | 10.0 | 0.00 | 0.00 | 0.00 | 51 | 1010.4 |
| 20260505165409 | 75 | 157 | 6.0 | 14.0 | 0.00 | 0.00 | 0.00 | 49 | 1010.4 |
| 20260505164904 | 75 | 228 | 4.0 | 10.0 | 0.00 | 0.00 | 0.00 | 50 | 1010.4 |
| 20260505164401 | 74 | 209 | 5.0 | 13.0 | 0.00 | 0.00 | 0.00 | 49 | 1010.6 |
| 20260505163859 | 74 | 275 | 3.0 | 10.0 | 0.00 | 0.00 | 0.00 | 50 | 1010.7 |
| 20260505163358 | 74 | 236 | 7.0 | 11.0 | 0.00 | 0.00 | 0.00 | 49 | 1010.8 |
| 20260505162856 | 74 | 227 | 7.0 | 10.0 | 0.00 | 0.00 | 0.00 | 49 | 1010.8 |
| 20260505162351 | 74 | 131 | 9.0 | 11.0 | 0.00 | 0.00 | 0.00 | 50 | 1010.8 |
| 20260505161849 | 74 | 145 | 7.0 | 11.0 | 0.00 | 0.00 | 0.00 | 49 | 1010.8 |
| 20260505161346 | 74 | 142 | 3.0 | 11.0 | 0.00 | 0.00 | 0.00 | 50 | 1011.0 |
| 20260505160843 | 74 | 265 | 6.0 | 10.0 | 0.00 | 0.00 | 0.00 | 49 | 1011.1 |
| 20260505160341 | 74 | 130 | 4.0 | 6.0 | 0.00 | 0.00 | 0.00 | 50 | 1011.2 |
| 20260505153319 | 74 | 170 | 4.0 | 8.0 | 0.00 | 0.00 | 0.00 | 50 | 1011.3 |
| 20260505152816 | 74 | 194 | 8.0 | 13.0 | 0.00 | 0.00 | 0.00 | 49 | 1011.5 |
| 20260505152313 | 74 | 164 | 4.0 | 9.0 | 0.00 | 0.00 | 0.00 | 52 | 1011.6 |
| 20260505151808 | 74 | 174 | 11.0 | 13.0 | 0.00 | 0.00 | 0.00 | 50 | 1011.3 |
| 20260505151305 | 73 | 231 | 3.0 | 9.0 | 0.00 | 0.00 | 0.00 | 52 | 1011.3 |
| 20260505150801 | 73 | 233 | 4.0 | 8.0 | 0.00 | 0.00 | 0.00 | 52 | 1011.3 |
| 20260505150259 | 72 | 164 | 7.0 | 9.0 | 0.00 | 0.00 | 0.00 | 50 | 1011.4 |
| 20260505140223 | 71 | 222 | 3.0 | 6.0 | 0.00 | 0.00 | 0.00 | 53 | 1011.2 |
| 20260505130147 | 68 | 224 | 2.0 | 4.0 | 0.00 | 0.00 | 0.00 | 57 | 1010.9 |
| 20260505124637 | 67 | 183 | 0.0 | 3.0 | 0.00 | 0.00 | 0.00 | 58 | 1010.8 |
| 20260505124133 | 67 | 163 | 4.0 | 6.0 | 0.00 | 0.00 | 0.00 | 58 | 1010.7 |
| 20260505123629 | 67 | 205 | 4.0 | 7.0 | 0.00 | 0.00 | 0.00 | 58 | 1010.6 |
| 20260505123126 | 67 | 110 | 4.0 | 9.0 | 0.00 | 0.00 | 0.00 | 59 | 1010.6 |
| 20260505122622 | 67 | 222 | 2.0 | 7.0 | 0.00 | 0.00 | 0.00 | 60 | 1010.3 |
| 20260505122120 | 67 | 158 | 2.0 | 7.0 | 0.00 | 0.00 | 0.00 | 60 | 1010.4 |
| 20260505121616 | 67 | 180 | 2.0 | 7.0 | 0.00 | 0.00 | 0.00 | 59 | 1010.3 |
| 20260505121113 | 67 | 152 | 1.0 | 4.0 | 0.00 | 0.00 | 0.00 | 62 | 1010.4 |
| 20260505120609 | 67 | 198 | 0.0 | 2.0 | 0.00 | 0.00 | 0.00 | 62 | 1010.3 |
| 20260505120105 | 66 | 67 | 1.0 | 2.0 | 0.00 | 0.00 | 0.00 | 62 | 1010.2 |
| 20260505115600 | 65 | 101 | 0.0 | 2.0 | 0.00 | 0.00 | 0.00 | 63 | 1010.1 |
| 20260505115058 | 66 | 78 | 2.0 | 2.0 | 0.00 | 0.00 | 0.00 | 61 | 1009.9 |
| 20260505114554 | 66 | 142 | 4.0 | 4.0 | 0.00 | 0.00 | 0.00 | 61 | 1009.8 |
| 20260505114050 | 65 | 130 | 1.0 | 6.0 | 0.00 | 0.00 | 0.00 | 61 | 1009.9 |
| 20260505113547 | 65 | 92 | 3.0 | 6.0 | 0.00 | 0.00 | 0.00 | 62 | 1009.7 |
| 20260505113043 | 65 | 188 | 2.0 | 4.0 | 0.00 | 0.00 | 0.00 | 63 | 1009.7 |
| 20260505112540 | 65 | 124 | 2.0 | 3.0 | 0.00 | 0.00 | 0.00 | 62 | 1009.7 |
| 20260505112039 | 65 | 135 | 3.0 | 3.0 | 0.00 | 0.00 | 0.00 | 62 | 1009.5 |
| 20260505111537 | 65 | 132 | 2.0 | 3.0 | 0.00 | 0.00 | 0.00 | 63 | 1009.7 |
| 20260505111034 | 65 | 125 | 2.0 | 4.0 | 0.00 | 0.00 | 0.00 | 61 | 1009.8 |
| 20260505110531 | 65 | 108 | 2.0 | 4.0 | 0.00 | 0.00 | 0.00 | 61 | 1009.7 |
| 20260505102004 | 65 | 204 | 2.0 | 4.0 | 0.00 | 0.00 | 0.00 | 60 | 1009.4 |
| 20260505101501 | 65 | 125 | 3.0 | 8.0 | 0.00 | 0.00 | 0.00 | 60 | 1009.4 |
| 20260505100957 | 65 | 100 | 2.0 | 4.0 | 0.00 | 0.00 | 0.00 | 61 | 1009.2 |
| 20260505100455 | 65 | 96 | 3.0 | 4.0 | 0.00 | 0.00 | 0.00 | 61 | 1009.1 |
| 20260505095951 | 65 | 102 | 3.0 | 3.0 | 0.00 | 0.00 | 0.00 | 62 | 1009.1 |
| 20260505095447 | 65 | 254 | 3.0 | 4.0 | 0.00 | 0.00 | 0.00 | 62 | 1009.1 |
| 20260505094943 | 65 | 76 | 1.0 | 4.0 | 0.00 | 0.00 | 0.00 | 61 | 1009.1 |
| 20260505094440 | 65 | 113 | 1.0 | 3.0 | 0.00 | 0.00 | 0.00 | 61 | 1009.1 |
| 20260505093937 | 65 | 75 | 2.0 | 4.0 | 0.00 | 0.00 | 0.00 | 61 | 1008.8 |
| 20260505093434 | 66 | 85 | 1.0 | 2.0 | 0.00 | 0.00 | 0.00 | 61 | 1008.8 |
| 20260505092931 | 65 | 98 | 2.0 | 7.0 | 0.00 | 0.00 | 0.00 | 61 | 1008.7 |
| 20260505092429 | 65 | 81 | 2.0 | 6.0 | 0.00 | 0.00 | 0.00 | 62 | 1008.6 |
| 20260505091926 | 65 | 102 | 1.0 | 3.0 | 0.00 | 0.00 | 0.00 | 62 | 1008.7 |
| 20260505091424 | 65 | 114 | 0.0 | 2.0 | 0.00 | 0.00 | 0.00 | 62 | 1008.6 |
| 20260505090922 | 65 | 69 | 2.0 | 4.0 | 0.00 | 0.00 | 0.00 | 60 | 1008.8 |
| 20260505090420 | 65 | 147 | 2.0 | 3.0 | 0.00 | 0.00 | 0.00 | 60 | 1008.5 |
| 20260505085917 | 65 | 72 | 3.0 | 6.0 | 0.00 | 0.00 | 0.00 | 60 | 1008.4 |
| 20260505085415 | 65 | 105 | 2.0 | 6.0 | 0.00 | 0.00 | 0.00 | 61 | 1008.4 |
| 20260505084912 | 65 | 108 | 1.0 | 3.0 | 0.00 | 0.00 | 0.00 | 61 | 1008.5 |
| 20260505084411 | 66 | 162 | 1.0 | 3.0 | 0.00 | 0.00 | 0.00 | 61 | 1008.4 |
| 20260505083909 | 66 | 81 | 1.0 | 4.0 | 0.00 | 0.00 | 0.00 | 60 | 1008.4 |
| 20260505083406 | 66 | 79 | 3.0 | 3.0 | 0.00 | 0.00 | 0.00 | 61 | 1008.3 |
| 20260505082902 | 66 | 157 | 3.0 | 3.0 | 0.00 | 0.00 | 0.00 | 61 | 1008.3 |
| 20260505082357 | 66 | 178 | 3.0 | 3.0 | 0.00 | 0.00 | 0.00 | 61 | 1008.5 |
| 20260505081854 | 66 | 171 | 2.0 | 3.0 | 0.00 | 0.00 | 0.00 | 60 | 1008.5 |
| 20260505081350 | 67 | 145 | 2.0 | 4.0 | 0.00 | 0.00 | 0.00 | 59 | 1008.3 |
| 20260505080847 | 67 | 112 | 2.0 | 4.0 | 0.00 | 0.00 | 0.00 | 60 | 1008.2 |
| 20260505080343 | 67 | 100 | 3.0 | 6.0 | 0.00 | 0.00 | 0.00 | 60 | 1008.3 |
| 20260505075839 | 67 | 113 | 1.0 | 3.0 | 0.00 | 0.00 | 0.00 | 61 | 1008.2 |
| 20260505075336 | 66 | 229 | 3.0 | 4.0 | 0.00 | 0.00 | 0.00 | 60 | 1008.3 |
| 20260505074833 | 66 | 178 | 4.0 | 8.0 | 0.00 | 0.00 | 0.00 | 60 | 1008.2 |
| 20260505074330 | 66 | 101 | 1.0 | 2.0 | 0.00 | 0.00 | 0.00 | 62 | 1008.3 |
| 20260505073828 | 66 | 154 | 1.0 | 4.0 | 0.00 | 0.00 | 0.00 | 60 | 1008.2 |
| 20260505073326 | 66 | 90 | 0.0 | 6.0 | 0.00 | 0.00 | 0.00 | 60 | 1008.1 |
| 20260505072822 | 67 | 167 | 1.0 | 3.0 | 0.00 | 0.00 | 0.00 | 59 | 1008.1 |
| 20260505072319 | 67 | 146 | 4.0 | 7.0 | 0.00 | 0.00 | 0.00 | 59 | 1008.0 |
| 20260505071815 | 67 | 249 | 1.0 | 4.0 | 0.00 | 0.00 | 0.00 | 59 | 1008.1 |
| 20260505071312 | 67 | 233 | 2.0 | 7.0 | 0.00 | 0.00 | 0.00 | 59 | 1008.0 |
| 20260505070810 | 67 | 92 | 6.0 | 7.0 | 0.00 | 0.00 | 0.00 | 59 | 1008.0 |
| 20260505070306 | 67 | 122 | 1.0 | 3.0 | 0.00 | 0.00 | 0.00 | 60 | 1008.0 |
| 20260505065801 | 67 | 347 | 0.0 | 3.0 | 0.00 | 0.00 | 0.00 | 58 | 1008.1 |
| 20260505065258 | 67 | 124 | 1.0 | 3.0 | 0.00 | 0.00 | 0.00 | 60 | 1008.0 |
| 20260505064755 | 67 | 184 | 2.0 | 7.0 | 0.00 | 0.00 | 0.00 | 59 | 1008.2 |
| 20260505064252 | 67 | 88 | 1.0 | 3.0 | 0.00 | 0.00 | 0.00 | 59 | 1008.2 |
| 20260505063750 | 67 | 112 | 2.0 | 3.0 | 0.00 | 0.00 | 0.00 | 59 | 1008.1 |
| 20260505063246 | 67 | 123 | 3.0 | 3.0 | 0.00 | 0.00 | 0.00 | 58 | 1008.2 |
| 20260505062743 | 67 | 179 | 2.0 | 4.0 | 0.00 | 0.00 | 0.00 | 60 | 1008.4 |
| 20260505062240 | 66 | 176 | 2.0 | 4.0 | 0.00 | 0.00 | 0.00 | 58 | 1008.2 |
| 20260505061737 | 66 | 120 | 1.0 | 3.0 | 0.00 | 0.00 | 0.00 | 61 | 1008.4 |
| 20260505061235 | 66 | 112 | 1.0 | 3.0 | 0.00 | 0.00 | 0.00 | 59 | 1008.4 |
| 20260505060732 | 66 | 147 | 2.0 | 3.0 | 0.00 | 0.00 | 0.00 | 58 | 1008.3 |
| 20260505060229 | 66 | 164 | 2.0 | 4.0 | 0.00 | 0.00 | 0.00 | 58 | 1008.4 |
| 20260505055723 | 66 | 139 | 4.0 | 6.0 | 0.00 | 0.00 | 0.00 | 60 | 1008.4 |
| 20260505055220 | 66 | 128 | 1.0 | 4.0 | 0.00 | 0.00 | 0.00 | 60 | 1008.3 |
| 20260505054718 | 66 | 141 | 3.0 | 4.0 | 0.00 | 0.00 | 0.00 | 60 | 1008.4 |
| 20260505054216 | 66 | 89 | 2.0 | 3.0 | 0.00 | 0.00 | 0.00 | 60 | 1008.4 |
| 20260505053714 | 66 | 117 | 3.0 | 4.0 | 0.00 | 0.00 | 0.00 | 59 | 1008.2 |
| 20260505053209 | 65 | 111 | 3.0 | 4.0 | 0.00 | 0.00 | 0.00 | 60 | 1008.3 |
| 20260505052707 | 65 | 108 | 1.0 | 4.0 | 0.00 | 0.00 | 0.00 | 63 | 1008.4 |
| 20260505052204 | 65 | 118 | 2.0 | 3.0 | 0.00 | 0.00 | 0.00 | 62 | 1008.4 |
| 20260505051701 | 65 | 121 | 2.0 | 3.0 | 0.00 | 0.00 | 0.00 | 63 | 1008.3 |
| 20260505051159 | 64 | 84 | 2.0 | 3.0 | 0.00 | 0.00 | 0.00 | 64 | 1008.3 |
| 20260505050657 | 64 | 84 | 2.0 | 3.0 | 0.00 | 0.00 | 0.00 | 65 | 1008.4 |
| 20260505050156 | 64 | 84 | 2.0 | 3.0 | 0.00 | 0.00 | 0.00 | 67 | 1008.4 |
| 20260505041630 | 64 | 87 | 2.0 | 2.0 | 0.00 | 0.00 | 0.00 | 72 | 1008.0 |
| 20260505041128 | 64 | 87 | 1.0 | 2.0 | 0.00 | 0.00 | 0.00 | 72 | 1007.9 |
| 20260505040624 | 64 | 87 | 1.0 | 2.0 | 0.00 | 0.00 | 0.00 | 70 | 1007.8 |
| 20260505040122 | 63 | 89 | 1.0 | 2.0 | 0.00 | 0.00 | 0.00 | 69 | 1007.8 |
| 20260505035618 | 63 | 89 | 1.0 | 2.0 | 0.00 | 0.00 | 0.00 | 69 | 1007.8 |
| 20260505035114 | 64 | 91 | 2.0 | 2.0 | 0.00 | 0.00 | 0.00 | 67 | 1007.9 |
| 20260505034611 | 65 | 90 | 2.0 | 2.0 | 0.00 | 0.00 | 0.00 | 66 | 1007.7 |
| 20260505034108 | 65 | 93 | 2.0 | 3.0 | 0.00 | 0.00 | 0.00 | 66 | 1007.8 |
| 20260505033605 | 65 | 97 | 2.0 | 3.0 | 0.00 | 0.00 | 0.00 | 68 | 1007.6 |
| 20260505033103 | 64 | 99 | 2.0 | 3.0 | 0.00 | 0.00 | 0.00 | 69 | 1007.7 |
| 20260505032601 | 64 | 98 | 2.0 | 3.0 | 0.00 | 0.00 | 0.00 | 69 | 1007.6 |
| 20260505032057 | 63 | 97 | 2.0 | 2.0 | 0.00 | 0.00 | 0.00 | 72 | 1007.6 |
| 20260505031554 | 63 | 101 | 2.0 | 2.0 | 0.00 | 0.00 | 0.00 | 72 | 1007.5 |
| 20260505031050 | 61 | 104 | 2.0 | 3.0 | 0.00 | 0.00 | 0.00 | 76 | 1007.4 |
| 20260505030548 | 59 | 95 | 1.0 | 1.0 | 0.00 | 0.00 | 0.00 | 86 | 1007.5 |
| 20260505030043 | 59 | 95 | 1.0 | 2.0 | 0.00 | 0.00 | 0.00 | 85 | 1007.6 |
| 20260505025539 | 60 | 95 | 1.0 | 1.0 | 0.00 | 0.00 | 0.00 | 86 | 1007.6 |
| 20260505025039 | 60 | 95 | 1.0 | 1.0 | 0.00 | 0.00 | 0.00 | 84 | 1007.6 |
| 20260505024535 | 61 | 95 | 0.0 | 1.0 | 0.00 | 0.00 | 0.00 | 83 | 1007.5 |